Regional Weather Roundup
Issued by NWS Green Bay, WI

Home | Current Version | Previous Version | Graphics & Text | Print | Product List | Glossary Off
Versions: 1 2 3 4 5 6 7 8 9 10 11 12 13 14 15 16 17 18 19 20 21 22 23 24 25 26 27 28 29 30 31 32 33 34 35 36 37 38 39 40 41 42 43 44 45 46 47 48 49 50

000
ASUS43 KGRB 292011
RWRGRB

NORTH-CENTRAL AND NORTHEAST WISCONSIN REGIONAL WEATHER ROUNDUP
NATIONAL WEATHER SERVICE GREEN BAY WI
300 PM CDT FRI MAY 29 2015

WIZ005-009-010>012-018-019-292100-
NORTH CENTRAL WISCONSIN

CITY           SKY/WX    TMP DP  RH WIND       PRES   REMARKS
IRONWOOD       CLOUDY    64  61  88 NW12      29.87R
MANITOWISH WTR CLOUDY    67  62  83 W6        29.90S
ARBOR VITAE    CLOUDY    67  64  89 W6        29.91S
EAGLE RIVER    LGT RAIN  65  65  98 SW9       29.91R
LAND O LAKES   CLOUDY    66  64  91 SW5       29.91S
RHINELANDER    CLOUDY    71  61  70 SW10      29.91F
PHILLIPS       CLOUDY    68  63  83 SW5       29.90S
ANTIGO         CLOUDY    73  62  68 SW13G20   29.90F
TOMAHAWK       CLOUDY    69  61  76 W6        29.91F
MERRILL        CLOUDY   N/A N/A N/A SW8       29.90F
$$

WIZ013-073-292100-
NORTHEAST WISCONSIN

CITY           SKY/WX    TMP DP  RH WIND       PRES   REMARKS
IRON MOUNTAIN  CLOUDY    79  59  50 SW10G22   29.85F
MARINETTE      CLOUDY    75  63  64 SW13      29.87F
OCONTO         CLOUDY    79  65  62 SW7       29.88F
$$

WIZ017-030-035>037-045-292100-
CENTRAL WISCONSIN

CITY           SKY/WX    TMP DP  RH WIND       PRES   REMARKS
MEDFORD        CLOUDY    70  64  81 S3        29.90F
WAUSAU         CLOUDY    75  62  64 VRB6      29.87F
MOSINEE        MOSUNNY   77  63  61 SW9       29.89F
MARSHFIELD     CLOUDY    77  63  61 W8        29.88F
WISC RAPIDS    CLOUDY    79  60  52 S9        29.89F
STEVENS POINT  CLOUDY    77  61  58 S15       29.88F
WAUPACA        PTSUNNY   78  64  62 S5        29.89F
SHAWANO        CLOUDY    78  62  57 SW8       29.89F
CLINTONVILLE   PTSUNNY   77  63  61 S9        29.89F
$$

WIZ038-039-048-051-292100-
FOX VALLEY

CITY           SKY/WX    TMP DP  RH WIND       PRES   REMARKS
NWS GREEN BAY  CLOUDY    78  65  63 SW10      29.89F
APPLETON       PTSUNNY   75  63  64 S12       29.91F
OSHKOSH        TSTM      68  64  87 W5G20     29.91R VSB 1
FOND DU LAC    CLOUDY    76  65  68 S20       29.91F
$$

WIZ022-050-052-292100-
EAST CENTRAL WISCONSIN

CITY           SKY/WX    TMP DP  RH WIND       PRES   REMARKS
STURGEON BAY   PTSUNNY   72  63  73 S15       29.93F
MANITOWOC      CLOUDY    60  56  86 SE10      29.92F FOG
SHEBOYGAN      LGT RAIN  68  64  87 S9        29.94F FOG
$$

LMZ563-521-522-541>543-292100-
LAKESHORE

STATION/POSITION TIME  TEMP    WIND        PRES    VSBY  WAVE
                       AIR SEA DIR/SP/G                  HT/PER
                 (UTC) (F)     (DEG/KT/KT) (MB)    (MI)  (FT/S)
SHEBOYGAN LKSHOR 2000   62     190/ 16/ 18 1013.8F
KEWAUNEE LKSHORE 1900   51     180/ 11/ 14 1013.1F
NORTHPORT PIER   1900   62     140/ 10/ 16 1013.2F
N MID LAKE BUOY  1950   43 37  190/ 10/ 12 1013.9F         1/ 3
SISTER BAY LKSHO 1918   71     150/ 14/ 18   N/A
CHAMBERS ISLAND  1900   69     130/  6/ 11 1012.9F
MENOMINEE LKSHOR 1900   61     150/  7/ 12 1013.5F
$$


USA.gov is the U.S. government's official web portal to all federal, state and local government web resources and services.